Back to catalog

STARLINK-33624

AliveCommunicationsVLEO
NORAD 63071·PAYLOAD·🇺🇸 United States

Launched Feb 21, 2025 from Cape Canaveral Space Force Station

Loading…

Next Passes (next 24 hours)

TLE

FreshSource: CelesTrak SupGP

Epoch: Sep 15, 2026, 03:23 UTC

1 63071C 25035V   26258.14145833  .00117960  00000+0  33407-2 0  2584
2 63071  42.9974 150.7985 0008636 214.0089 278.8452 15.35349348    18

Track STARLINK-33624 in real time with AllMySat

Download on the App Store